Simultaneous Nadir Overpasses (SNOs) Predictions

Prediction of SNOs between GOES-15 and TERRA Satellite Orbit:

Table of predicted SNOs for the next 14.0 days since TLE Epoch: 3/28/2015
Index Date Time (GOES-15) GOES-15 Lat,Lon TERRA Lat,Lon Distance(km) Time Diff (sec)
1 03/29/2015 19:15:51 0.02,-134.70 -0.71,-131.16 402.11 80
2 03/30/2015 07:37:15 -0.01,-134.66 -0.36,-136.36 192.77 80
3 04/01/2015 07:22:23 -0.02,-134.58 0.21,-133.39 134.33 80
4 04/01/2015 19:43:39 0.01,-134.57 0.85,-138.55 452.79 80
5 04/03/2015 07:10:12 -0.02,-134.49 0.86,-130.44 461.08 80
6 04/03/2015 19:31:27 0.02,-134.48 0.26,-135.59 126.02 80
7 04/05/2015 19:21:55 0.02,-134.38 -0.35,-132.62 200.19 80
8 04/06/2015 07:43:19 -0.01,-134.35 -0.76,-137.81 394.18 80
9 04/08/2015 07:31:07
